{"data":{"norad_id":64124,"epoch":"2026-09-20T23:21:40.941792Z","epoch_age_seconds":99441,"freshness":"FRESH","line1":"1 64124U 25111B   26263.97339053  .00112226  00000+0  86559-3 0  9994","line2":"2 64124  43.0000 236.6151 0001448 266.2966  93.7736 15.70860561 77350","mean_motion":15.70860561,"eccentricity":0.0001448,"inclination_deg":43,"raan_deg":236.6151,"arg_perigee_deg":266.2966,"mean_anomaly_deg":93.7736,"bstar":0.00086559,"rev_number":7735,"period_min":91.669498601665,"perigee_km":355.46112881039,"apogee_km":357.41146123663,"semimajor_km":6734.5732950235,"source":"CELESTRAK","updated_at":"2026-09-21T09:00:35.232492Z"}}